Weather in Dharamsala

India     32°12′47″N   76°19′21″E
temp.,
°C
wind,
m/s
gust,
m/s
humid.,
%
clouds,
%
prec.,
mm/h
press.,
hPa
HPBL,
m
22 january, sat
sat2223:30+5ne3377100 0.7 101341
02:30+5ne4365100 0.0 101128
05:30+5ne3265100 0.0 101033
08:30+5nne3261100 0.0 101040
11:30+6sw2176100 0.0 1010632
14:30+6sw3391100 1.1 1007604
17:30+5wsw3399100 3.9 1007305
20:30+4ese1299100 5.8 1009111
23 january, sun
sun2323:30+4ese3590100 8.2 1009322
02:30+4se2398100 0.8 1010136
05:30+4nw2396100 6.9 1009260
08:30+3s1299100 3.6 1012171
11:30+3s2397100 9.2 1014214
14:30+4sse3596100 4.4 1012327
17:30+4se3692100 7.2 1013317
20:30+4ese2393100 3.2 1014180
24 january, mon
mon2423:30+3ese2595100 6.0 1015328
02:30+3ene338895 1.4 101589
05:30+2ene228665 2.1 101419
08:30+4e118499 0.1 101540
11:30+6sw228398 0.3 1016602
14:30+6sw228298 0.4 1014584
17:30+5n118976 1.2 101412
20:30+2ne437749 0.1 101727
25 january, tue
tue2523:30+2ne437386 0.1 101831
02:30+1ne437281 0.0 101836
05:30+1ne547033 0.0 101836
08:30+2ne43705 0.0 101744
11:30+7sw21705 0.0 1016549
14:30+7sw22715 1.1 1014536
17:30+5nne22825 2.1 101414
20:30+2ne53715 0.0 101835
26 january, wed
wed2623:30+1ne546871 0.2 101940
02:30+1ne54688 0.1 101841
05:30+1ne54675 0.1 101738
08:30+2ne436931 0.0 101745
11:30+7sw217139 0.3 1016571
14:30+6sw227525 2.2 1014611
17:30+4n12845 3.4 101414
20:30+1ne53744 0.0 101837